Wind_Speed
7 6 6 6 6 5 5 4 3 2 2 2 2 2 2 2 2 2 2 1 1 1 2 2 2 2 3 4 4 5 6 6 6 6 5 5 6 6 7 8 8 8 8
6 6 5 5 5 4 4 3 2 2 2 1 1 1 1 1 2 2 2 2 1 2 3 3 3 3 4 5 6 6 7 7 7 7 7 7 7 8 8 8 8 9 8
5 5 4 4 4 3 3 3 2 1 1 1 1 1 1 1 2 2 2 2 2 2 3 4 4 4 5 6 6 6 7 7 7 8 8 8 8 8 9 9 9 10 10
5 4 3 3 3 3 3 3 2 2 1 1 1 1 1 2 2 2 2 2 2 3 4 4 5 5 6 7 7 7 7 8 8 8 9 9 9 9 9 10 10 10 11
2 2 2 2 2 2 2 2 2 1 1 0 1 1 2 2 3 2 3 3 4 4 4 5 5 6 7 8 8 8 8 8 9 9 9 9 9 9 10 10 11 11 11
1 1 1 2 2 1 1 1 1 1 1 1 1 2 2 3 4 4 4 5 5 6 6 6 7 8 8 9 9 9 9 9 10 10 10 10 10 10 11 11 11 11 11
1 1 1 1 0 1 1 1 2 2 3 3 3 3 4 5 5 6 6 7 7 8 8 8 8 9 9 10 10 10 10 10 10 10 10 10 10 11 12 12 12 12 12
0 1 1 1 1 1 2 3 3 3 4 4 4 5 6 7 6 7 7 8 8 8 9 9 10 10 11 11 11 11 11 11 11 11 11 11 11 11 12 12 13 13 13
1 2 2 2 2 3 3 4 4 5 5 5 6 7 7 7 8 8 9 9 9 9 10 11 11 12 12 13 13 13 13 13 13 13 13 12 13 12 12 13 13 14 15
2 3 3 4 4 4 5 4 4 5 6 7 7 8 9 9 9 9 10 10 10 11 11 12 12 13 13 14 14 14 14 14 14 14 14 14 14 14 14 14 14 14 15
3 4 4 5 5 6 6 6 7 7 7 8 9 10 10 11 11 11 11 12 12 12 12 12 13 14 14 15 15 15 16 15 15 15 15 16 16 15 16 16 16 16 16
4 5 6 6 7 7 7 8 8 9 9 10 10 11 12 12 12 12 12 13 13 13 13 14 14 15 15 15 15 16 16 16 17 17 17 17 17 17 17 17 17 17 17
6 7 8 8 8 8 8 9 9 10 10 11 11 12 13 13 13 13 14 14 14 14 14 14 15 16 16 16 16 16 17 17 18 18 18 18 18 18 17 18 18 18 19
9 9 9 9 9 9 9 10 10 11 12 13 12 12 13 13 14 14 14 14 14 15 15 15 16 16 16 17 18 18 19 19 18 18 18 18 18 18 18 18 18 19 19
11 10 10 11 11 11 11 11 12 12 13 13 13 13 13 14 14 15 16 16 16 15 15 16 16 16 16 17 18 19 19 19 18 19 19 19 19 19 18 18 18 19 19
12 12 12 12 13 13 13 13 13 13 13 13 13 13 14 14 15 15 16 16 16 16 15 16 17 18 18 19 19 20 20 19 19 19 20 20 19 19 19 19 19 19 20
13 13 14 14 14 14 14 14 14 14 14 14 14 14 15 16 16 17 16 17 17 17 17 18 19 20 20 21 22 21 21 21 21 21 21 21 20 20 20 20 20 21 21
14 14 15 14 14 14 15 15 16 16 16 16 16 17 17 17 18 18 18 18 18 19 19 20 21 21 21 22 22 22 22 22 22 22 22 22 21 20 21 21 21 21 22
16 16 15 16 15 16 16 16 16 17 17 18 18 19 19 19 20 21 21 20 21 22 22 22 22 23 23 23 23 24 24 23 23 23 23 23 22 22 21 22 22 22 22
17 16 17 17 17 17 17 17 17 18 19 19 20 21 22 22 22 23 23 23 23 24 24 24 24 24 24 25 25 24 24 24 24 24 24 24 24 22 22 22 23 22 23
17 18 18 17 18 18 18 19 19 19 20 20 21 22 23 23 23 24 24 24 24 24 25 26 26 26 26 25 26 25 25 25 25 24 24 25 25 24 23 23 24 24 24
18 18 18 18 19 19 20 20 21 21 21 21 22 23 24 25 25 24 24 24 25 25 26 27 27 27 27 26 26 26 26 25 25 24 24 24 25 25 24 24 24 24 25
20 19 19 20 20 20 21 21 21 22 22 23 23 24 25 26 26 25 25 24 24 26 26 27 27 27 27 27 26 26 26 26 24 24 24 24 24 24 25 25 25 25 25
20 20 20 20 20 21 21 22 22 23 24 24 24 25 26 26 26 25 25 24 25 25 26 26 26 26 26 26 27 26 25 24 24 24 24 24 24 24 25 25 25 25 26
21 21 21 21 22 22 22 23 23 24 24 25 26 26 26 26 26 26 25 25 25 25 26 26 26 26 26 26 27 26 25 24 24 24 24 24 24 24 24 24 25 25 26
22 21 21 22 22 21 21 22 24 24 24 24 25 25 26 26 27 26 26 26 25 25 26 26 25 25 25 26 26 25 24 24 24 25 25 25 24 24 24 24 25 25 26
Wind_Direction
102 99 92 92 87 80 83 91 103 121 123 96 90 85 79 62 38 25 13 355 322 300 302 305 307 302 308 312 305 300 294 294 283 278 278 275 271 263 256 252 250 251 254
98 95 91 87 76 72 78 88 104 106 108 111 97 80 62 16 353 357 355 345 326 303 307 305 301 306 309 313 308 303 303 297 291 282 279 277 273 268 261 254 250 252 255
96 98 89 72 66 63 71 81 77 98 101 96 63 24 14 347 337 331 343 343 334 318 311 303 295 298 308 312 310 307 313 304 299 289 285 278 272 267 263 257 254 251 252
96 89 84 70 66 64 60 55 60 80 88 68 353 349 338 332 329 332 331 329 325 319 309 306 299 297 299 302 304 304 310 308 300 295 287 278 271 268 266 262 256 252 251
91 88 91 70 70 66 52 49 50 58 64 28 345 342 324 306 312 325 323 307 299 299 303 306 305 303 303 300 303 304 306 304 302 297 289 279 274 270 268 264 259 256 253
102 117 104 84 64 58 48 28 16 360 317 286 301 302 308 300 299 300 304 301 299 292 291 296 300 300 304 303 301 301 301 299 299 297 292 284 276 272 269 266 262 261 258
111 125 99 40 354 283 287 319 336 332 317 298 291 290 297 300 298 293 296 297 297 299 298 299 302 301 301 301 302 302 301 299 298 297 292 286 280 274 269 265 262 258 257
17 61 37 348 309 301 302 305 305 304 307 299 288 286 291 301 305 296 296 298 299 298 300 301 301 300 299 297 298 301 300 297 296 293 291 286 283 277 273 267 263 259 257
294 306 295 312 299 293 286 279 277 287 293 292 289 291 297 299 298 297 294 296 297 298 299 301 301 301 300 298 296 297 298 293 293 289 286 286 282 278 273 272 269 264 261
290 296 297 297 305 296 288 285 284 288 288 291 295 295 294 294 292 293 295 294 296 295 296 298 298 301 299 296 296 296 295 294 294 291 287 285 283 280 277 272 269 267 265
287 296 298 292 291 291 287 288 287 286 285 287 291 294 296 293 292 291 293 294 293 293 293 294 296 298 299 297 296 296 294 293 292 292 290 286 283 280 277 275 272 270 268
281 291 299 297 296 292 287 284 286 287 287 288 290 289 290 292 291 289 289 290 289 289 290 292 295 296 297 297 297 296 295 293 291 290 289 289 285 281 279 276 272 270 268
279 286 290 294 295 296 293 286 284 285 287 287 289 289 289 290 291 290 290 290 290 291 290 290 292 294 295 295 296 297 297 294 292 289 287 286 282 280 280 277 274 270 269
278 283 286 290 289 292 292 288 286 286 287 286 286 287 289 290 292 293 293 294 294 295 293 291 292 295 294 294 292 294 295 293 292 290 287 284 280 278 278 276 276 272 270
277 277 279 284 287 289 290 290 290 292 293 291 288 288 289 290 294 293 291 291 294 295 295 295 295 296 296 297 297 296 295 293 293 292 289 286 281 278 276 276 276 275 274
273 273 277 278 280 284 287 289 291 293 292 291 289 289 290 290 292 294 294 293 294 295 294 292 294 295 295 295 294 294 295 293 292 293 292 289 283 280 276 276 275 274 276
272 274 276 277 279 281 283 286 289 290 291 289 287 288 290 290 292 294 294 292 293 294 295 294 295 294 294 294 294 293 292 290 290 290 291 289 285 282 278 275 273 272 274
277 277 278 276 276 278 281 283 287 288 287 289 290 289 289 290 292 293 292 292 292 293 296 298 296 296 294 293 293 292 290 289 289 289 288 287 285 284 281 277 276 274 273
279 276 279 277 276 278 280 281 284 287 289 289 289 290 289 290 291 292 292 291 291 292 294 296 296 296 295 293 290 289 287 286 287 287 286 286 285 281 281 278 276 275 274
280 280 280 280 278 280 280 281 283 285 287 288 288 289 288 288 289 290 290 290 291 292 292 294 295 294 294 292 290 289 287 286 285 285 285 284 284 282 280 279 275 274 275
278 279 280 281 279 281 281 280 282 285 285 287 287 289 289 288 290 290 290 289 290 292 292 294 294 294 294 293 290 287 287 286 285 284 285 284 283 281 278 278 277 275 276
279 280 279 280 280 280 281 282 283 285 286 287 289 289 290 291 291 291 291 290 290 292 294 294 295 295 295 292 290 288 286 285 284 284 284 285 284 281 279 279 276 274 275
276 279 280 278 279 280 279 282 284 285 286 287 288 289 290 292 292 292 293 292 292 294 295 296 295 295 294 293 292 290 288 285 284 283 283 283 283 281 279 278 276 275 275
274 276 277 280 280 279 278 281 284 284 285 287 287 288 289 291 293 293 293 292 293 295 297 298 297 296 295 295 294 293 292 288 285 284 284 283 282 282 281 279 277 277 276
277 279 278 279 281 280 280 281 284 286 287 289 289 290 291 291 293 292 292 292 293 294 296 299 297 296 296 297 298 295 291 289 288 286 285 283 282 283 283 282 280 278 278
276 278 281 281 283 282 284 286 287 288 290 291 292 291 291 290 290 291 292 293 294 295 296 298 297 297 296 295 295 295 292 289 288 287 286 283 282 282 282 283 282 280 280
Height
5895 5896 5896 5896 5896 5896 5897 5897 5897 5897 5898 5898 5898 5898 5899 5899 5899 5899 5898 5898 5898 5898 5898 5897 5897 5897 5897 5897 5897 5896 5896 5896 5895 5895 5894 5894 5894 5893 5893 5894 5894 5894 5894
5896 5897 5897 5897 5897 5897 5897 5897 5897 5897 5898 5898 5898 5898 5898 5899 5899 5899 5898 5898 5897 5897 5897 5897 5897 5897 5896 5896 5895 5895 5894 5894 5894 5893 5892 5892 5892 5891 5891 5892 5892 5892 5892
5897 5897 5898 5898 5898 5898 5898 5898 5898 5898 5898 5898 5898 5898 5898 5898 5898 5898 5898 5897 5897 5897 5897 5896 5896 5896 5895 5894 5894 5893 5892 5892 5891 5891 5890 5890 5889 5889 5889 5889 5889 5889 5890
5898 5898 5898 5898 5898 5898 5898 5898 5898 5898 5898 5898 5898 5898 5898 5897 5897 5897 5897 5897 5896 5896 5896 5895 5895 5894 5893 5893 5892 5891 5890 5890 5889 5888 5888 5887 5887 5887 5887 5886 5886 5887 5887
5898 5898 5898 5898 5898 5898 5898 5898 5898 5898 5898 5898 5898 5897 5897 5897 5897 5896 5896 5896 5895 5895 5895 5894 5894 5893 5892 5891 5890 5889 5888 5887 5886 5886 5885 5884 5884 5884 5884 5884 5884 5884 5884
5899 5899 5899 5898 5898 5898 5898 5898 5898 5898 5898 5898 5897 5897 5897 5896 5896 5896 5896 5895 5894 5894 5893 5893 5892 5891 5890 5889 5888 5887 5886 5885 5884 5883 5882 5881 5881 5881 5881 5881 5881 5881 5881
5899 5899 5899 5898 5898 5898 5898 5898 5898 5897 5897 5896 5896 5896 5896 5895 5895 5895 5894 5894 5893 5892 5892 5891 5890 5890 5889 5887 5886 5885 5883 5882 5881 5880 5879 5878 5878 5878 5878 5878 5878 5878 5878
5899 5899 5898 5898 5898 5897 5897 5897 5897 5897 5896 5896 5895 5895 5895 5895 5893 5893 5893 5892 5891 5891 5890 5889 5888 5887 5886 5885 5884 5883 5881 5880 5879 5878 5876 5875 5875 5874 5874 5874 5874 5874 5874
5899 5898 5898 5897 5897 5896 5896 5896 5896 5896 5895 5895 5894 5894 5894 5893 5892 5892 5891 5890 5889 5889 5888 5887 5886 5885 5883 5882 5881 5880 5879 5877 5876 5874 5873 5872 5872 5871 5871 5870 5870 5871 5871
5898 5898 5897 5897 5896 5895 5895 5895 5895 5894 5894 5893 5893 5892 5892 5891 5890 5889 5889 5888 5887 5886 5885 5884 5883 5882 5880 5879 5878 5877 5875 5874 5872 5871 5870 5869 5868 5868 5867 5867 5867 5867 5867
5896 5896 5896 5895 5894 5894 5894 5893 5893 5892 5892 5891 5891 5890 5889 5889 5888 5887 5886 5885 5884 5883 5882 5881 5880 5878 5877 5875 5874 5873 5871 5870 5869 5868 5867 5865 5864 5864 5863 5863 5863 5863 5862
5895 5894 5894 5893 5893 5892 5891 5891 5890 5890 5889 5889 5888 5887 5886 5886 5885 5884 5883 5882 5881 5880 5879 5878 5876 5875 5873 5872 5870 5869 5867 5866 5865 5864 5862 5861 5860 5859 5859 5858 5858 5858 5858
5893 5892 5892 5891 5890 5889 5889 5888 5888 5887 5886 5886 5885 5884 5883 5882 5881 5880 5879 5878 5877 5876 5875 5874 5872 5871 5869 5868 5866 5865 5863 5861 5860 5859 5858 5856 5855 5855 5854 5853 5853 5853 5853
5890 5890 5889 5888 5887 5886 5886 5885 5885 5884 5883 5882 5882 5881 5880 5879 5878 5877 5876 5874 5873 5872 5871 5870 5868 5867 5865 5863 5862 5860 5859 5857 5856 5854 5853 5851 5850 5850 5849 5848 5848 5847 5847
5887 5887 5886 5885 5884 5884 5883 5882 5881 5881 5880 5879 5878 5877 5876 5875 5874 5873 5872 5871 5870 5868 5867 5865 5864 5862 5861 5859 5857 5855 5854 5852 5851 5849 5848 5846 5845 5844 5843 5843 5842 5842 5842
5884 5883 5883 5882 5881 5881 5880 5879 5878 5877 5877 5875 5874 5874 5873 5872 5871 5869 5868 5867 5866 5864 5863 5861 5859 5858 5856 5854 5852 5851 5849 5848 5846 5844 5842 5841 5839 5839 5838 5838 5837 5837 5836
5880 5879 5879 5878 5877 5877 5876 5875 5875 5874 5873 5872 5871 5870 5869 5868 5866 5865 5864 5863 5861 5860 5859 5857 5854 5852 5851 5849 5847 5845 5844 5842 5841 5839 5837 5835 5834 5833 5832 5832 5832 5831 5831
5875 5875 5874 5873 5873 5872 5872 5871 5870 5869 5868 5867 5866 5865 5864 5863 5862 5861 5859 5858 5857 5855 5854 5852 5849 5847 5845 5843 5841 5839 5838 5836 5834 5833 5831 5830 5829 5828 5827 5826 5826 5825 5825
5870 5870 5870 5869 5869 5868 5867 5866 5865 5864 5864 5863 5862 5861 5860 5858 5857 5855 5854 5852 5851 5850 5848 5846 5844 5841 5839 5837 5835 5833 5831 5830 5828 5827 5825 5824 5823 5822 5821 5820 5819 5819 5819
5866 5865 5865 5865 5864 5863 5863 5862 5861 5860 5859 5858 5856 5855 5854 5853 5851 5850 5848 5846 5845 5843 5841 5840 5838 5835 5833 5830 5828 5826 5825 5823 5822 5820 5819 5818 5816 5815 5814 5814 5813 5813 5812
5862 5861 5861 5860 5859 5859 5858 5857 5856 5855 5854 5852 5851 5849 5848 5846 5845 5843 5842 5840 5838 5837 5835 5833 5831 5829 5826 5824 5822 5819 5818 5816 5815 5813 5812 5811 5810 5809 5808 5807 5807 5806 5806
5857 5856 5856 5855 5854 5853 5852 5852 5851 5849 5848 5846 5845 5843 5842 5840 5838 5836 5834 5833 5831 5830 5828 5826 5824 5822 5819 5817 5814 5813 5811 5809 5808 5807 5805 5804 5803 5802 5801 5800 5800 5799 5799
5851 5851 5850 5849 5848 5847 5847 5846 5845 5844 5842 5840 5839 5837 5835 5834 5832 5830 5828 5826 5825 5823 5821 5819 5817 5814 5812 5810 5808 5806 5804 5802 5801 5800 5798 5797 5796 5795 5794 5793 5792 5792 5792
5845 5845 5844 5843 5842 5842 5841 5840 5839 5837 5836 5834 5832 5831 5829 5827 5825 5823 5822 5820 5818 5816 5814 5812 5810 5808 5805 5802 5801 5799 5797 5795 5794 5792 5791 5790 5789 5788 5787 5786 5785 5785 5785
5840 5839 5838 5838 5837 5836 5835 5834 5833 5831 5830 5828 5826 5824 5822 5820 5819 5817 5815 5813 5811 5809 5807 5805 5803 5800 5797 5795 5793 5792 5790 5788 5787 5785 5784 5783 5782 5781 5780 5779 5778 5777 5777
5833 5833 5832 5831 5830 5829 5828 5827 5826 5825 5823 5821 5819 5817 5815 5814 5812 5810 5808 5806 5805 5803 5801 5799 5796 5793 5791 5788 5786 5784 5783 5781 5779 5778 5777 5776 5775 5774 5773 5772 5770 5770 5769